Location: Dumpton Point
(51.3500°N, 1.4433°E)
Time: 05:54:05
(UTC+00:00)

Altair - Pass Details

Date: 03 October 2022
Orbit: 1501 x 1682 km, 47.2° (Epoch: 26 November)

Event Time Altitude Azimuth Distance (km) Brightness Sun altitude
Rises 10:42:46 0° 286° (WNW) 4,900 9.9 33.1°
Reaches altitude 10° 10:46:07 10° 280° (W) 3,926 9.5 33.3°
Maximum altitude 10:55:15 41° 215° (SW) 2,292 9.4 33.7°
Drops below altitude 10° 11:04:24 10° 150° (SSE) 3,928 10.9 34.0°
Sets 11:07:46 0° 144° (SE) 4,902 11.0 34.1°
